Content
SEND FEEDBACK

Daily
Averages
Monthly
Summary
United States of America

CHICAGO, ILLINOIS


Home > North America > United States > Illinois
Elevation: 674 feet     Latitude: 41 59N     Longitude: 087 54W

WEATHER
 
SELECT A DAY
Number of Records: 194,883;   Date Range: 7/8/95 - 7/29/14
 
SHARE

PRINT THIS DATA

[ ← Previous Day ]
WEATHER ALMANAC - FEBRUARY 6, 2013
[ Next Day → ]
[ °C ]   °F
Weather ElementAverageHighLow
Temperature27.4 °F36 °F (2:52 pm)10.9 °F (6:52 am)
Dewpoint19.7 °F28 °F (6:52 pm)9 °F (5:52 am)
Humidity73.7 %92 % (6:52 am)59 % (12:52 pm)
Barometer30.20 in30.27 in (8:52 am)30.13 in (2:32 am)
Wind Speed5.3 mph10.4 mph (1:52 pm)
Weather ElementAverage
Visibility7.2 mi
Wind DirectionSSE (142.6 °)

Weather ElementTotal
Precipitation0.32 in
Heating Degree Days41.6 (Base 65)
Averaged from 23 records on February 6, 2013
WEATHER CONDITIONS BREAKOUT
WIND DIRECTION BREAKOUT
WEATHER BY HOUR - FEBRUARY 6, 2013
[ °C ]   °F
Local TimeTemperatureDewpointHumidityBarometerVisibilityWind DirectionWind SpeedGust SpeedPrecipitationEventsConditions
1:52 AM25.0 °F16.0 °F69 %30.16 in10.0 miNNW (330°)6.9 mphOvercast
2:32 AM21.2 °F14.0 °F74 %30.13 in10.0 miNNW (340°)6.9 mphScattered Clouds
2:52 AM21.0 °F14.0 °F74 %30.17 in10.0 miNNW (340°)3.5 mphClear
3:52 AM19.0 °F12.0 °F74 %30.19 in10.0 miCalmClear
4:52 AM12.9 °F10.0 °F88 %30.21 in7.0 miCalmClear
5:52 AM12.9 °F9.0 °F84 %30.23 in5.0 miCalmClear
6:52 AM10.9 °F9.0 °F92 %30.23 in4.0 miCalmClear
7:52 AM15.1 °F12.9 °F91 %30.25 in3.0 miCalmClear
8:52 AM19.9 °F17.1 °F89 %30.27 in4.0 miCalmClear
9:52 AM25.0 °F17.1 °F72 %30.26 in7.0 miCalm0.02 inClear
10:52 AM30.0 °F19.9 °F66 %30.26 in7.0 miSouth (180°)8.1 mph0.10 inClear
11:52 AM32.0 °F21.0 °F64 %30.25 in7.0 miSouth (170°)5.8 mph0.09 inClear
12:52 PM34.0 °F21.0 °F59 %30.23 in8.0 miSSW (210°)9.2 mph0.10 inClear
1:52 PM35.1 °F21.9 °F59 %30.22 in8.0 miSSW (210°)10.4 mph0.01 inPartly Cloudy
2:52 PM36.0 °F23.0 °F59 %30.19 in7.0 miSSW (210°)8.1 mphOvercast
3:52 PM36.0 °F25.0 °F64 %30.21 in7.0 miSouth (180°)9.2 mphOvercast
4:52 PM36.0 °F26.1 °F67 %30.21 in7.0 miSouth (170°)8.1 mphClear
5:52 PM36.0 °F26.1 °F67 %30.19 in8.0 miSE (130°)4.6 mphClear
6:52 PM35.1 °F28.0 °F76 %30.17 in8.0 miSSE (160°)8.1 mphPartly Cloudy
7:52 PM35.1 °F28.0 °F76 %30.17 in8.0 miSouth (170°)8.1 mphOvercast
8:52 PM35.1 °F28.0 °F76 %30.18 in8.0 miSouth (170°)8.1 mphMostly Cloudy
9:52 PM34.0 °F28.0 °F79 %30.15 in7.0 miSSE (150°)8.1 mphOvercast
11:52 PM34.0 °F27.0 °F75 %30.14 in6.0 miSSE (160°)9.2 mphHaze
Hourly data recorded from KPWK, located miles away from Chicago, Illinois







STORIES FROM OUR PARTNERS